Content
SEND FEEDBACK

Daily
Averages
Monthly
Summary
Turkmenistan

ASHGABAT, TURKMENISTAN


Home > Asia > Turkmenistan
Elevation: 775 feet     Latitude: 37 58N     Longitude: 058 20E

WEATHER
 
SELECT A DAY
Number of Records: 183,486;   Date Range: 3/15/97 - 12/19/14
 
SHARE

PRINT THIS DATA

[ ← Previous Day ]
WEATHER ALMANAC - APRIL 29, 2013
[ Next Day → ]
[ °C ]   °F
Weather ElementAverageHighLow
Temperature63.3 °F77 °F (4:00 pm)48.2 °F (5:00 am)
Dewpoint30.2 °F39 °F (2:00 am)21.2 °F (12:00 pm)
Humidity31.4 %62 % (5:00 am)9 % (2:00 pm)
Barometer30.22 in30.31 in (8:00 am)30.15 in (4:00 pm)
Wind Speed7.2 mph15.7 mph (2:00 pm)
Weather ElementAverage
Visibility6.1 mi
Wind DirectionESE (101.3 °)

Weather ElementTotal
Precipitation---
Heating Degree Days2.4 (Base 65)
Growing Degree Days12.6 (Base 50)
Averaged from 31 records on April 29, 2013
WEATHER CONDITIONS BREAKOUT
WIND DIRECTION BREAKOUT
WEATHER BY HOUR - APRIL 29, 2013
[ °C ]   °F
Local TimeTemperatureDewpointHumidityBarometerVisibilityWind DirectionWind SpeedGust SpeedPrecipitationEventsConditions
1:00 AM53.6 °F35.6 °F51 %30.30 in6.2 miSouth (190°)2.2 mphPartly Cloudy
2:00 AM52.0 °F39.0 °F51 %30.30 in6.0 miCalmScattered Clouds
2:00 AM51.8 °F35.6 °F54 %30.27 in6.2 miCalmPartly Cloudy
3:00 AM50.0 °F35.6 °F58 %30.27 in6.2 miCalmScattered Clouds
4:00 AM50.0 °F35.6 °F58 %30.24 in6.2 miVariable2.2 mphScattered Clouds
5:00 AM49.0 °F36.0 °F51 %30.29 in6.0 miSouth (180°)4.5 mphClear
5:00 AM48.2 °F35.6 °F62 %30.24 in6.2 miSW (220°)4.5 mphMostly Cloudy
6:00 AM48.2 °F35.6 °F62 %30.27 in6.2 miCalmScattered Clouds
7:00 AM48.2 °F35.6 °F62 %30.27 in6.2 miSouth (180°)4.5 mphScattered Clouds
8:00 AM55.0 °F37.0 °F40 %30.31 in6.0 miSSE (160°)2.2 mphClear
8:00 AM57.2 °F35.6 °F44 %30.27 in6.2 miCalmPartly Cloudy
9:00 AM64.4 °F33.8 °F32 %30.27 in6.2 miSE (130°)4.5 mphPartly Cloudy
10:00 AM66.2 °F24.8 °F21 %30.27 in6.2 miESE (120°)6.7 mphScattered Clouds
11:00 AM69.0 °F28.0 °F12 %30.27 in6.0 miESE (120°)8.9 mphClear
11:00 AM69.8 °F24.8 °F18 %30.27 in6.2 miEast (100°)8.9 mphMostly Cloudy
12:00 PM71.6 °F21.2 °F15 %30.27 in6.2 miESE (110°)11.2 mphScattered Clouds
1:00 PM73.4 °F23.0 °F15 %30.24 in6.2 miEast (90°)11.2 mphPartly Cloudy
2:00 PM73.0 °F27.0 °F9 %30.21 in6.0 miESE (110°)15.7 mphClear
2:00 PM75.2 °F23.0 °F14 %30.21 in6.2 miESE (110°)11.2 mphPartly Cloudy
3:00 PM75.2 °F24.8 °F15 %30.18 in6.2 miEast (90°)11.2 mphPartly Cloudy
4:00 PM77.0 °F24.8 °F14 %30.15 in6.2 miEast (100°)11.2 mphPartly Cloudy
5:00 PM75.0 °F27.0 °F9 %30.15 in6.0 miEast (100°)11.2 mphClear
5:00 PM75.2 °F23.0 °F14 %30.15 in6.2 miEast (100°)11.2 mphPartly Cloudy
6:00 PM75.2 °F23.0 °F14 %30.15 in6.2 miEast (90°)11.2 mphPartly Cloudy
7:00 PM73.4 °F23.0 °F15 %30.15 in6.2 miEast (100°)13.4 mphPartly Cloudy
8:00 PM70.0 °F30.0 °F13 %30.15 in6.0 miEast (100°)8.9 mphClear
8:00 PM69.8 °F26.6 °F20 %30.15 in6.2 miEast (100°)8.9 mphPartly Cloudy
9:00 PM66.2 °F30.2 °F26 %30.15 in6.2 miESE (110°)11.2 mphClear
10:00 PM62.6 °F32.0 °F32 %30.15 in6.2 miESE (110°)6.7 mphClear
11:00 PM59.0 °F37.0 °F32 %30.17 in6.0 miESE (110°)8.9 mph
11:00 PM59.0 °F33.8 °F39 %30.15 in6.2 miESE (110°)11.2 mphClear
Hourly data recorded from UTAA, located miles away from Ashgabat, Turkmenistan







STORIES FROM OUR PARTNERS